This is the latest recevied weather packets stored in our database for station/object KM8V-8. If no packets are shown the sender has not sent any weather packets the latest 10 day(s).
| Time | Temp. | Humidity | Pressure | Rain* | Wind** | Luminosity | Snow |
|---|---|---|---|---|---|---|---|
| 1777899321 | 13.33° C | 62% | 1007.4 hPa | 0.76 mm | - | 351 W/m² | - |
| 1777899021 | 12.78° C | 62% | 1007.4 hPa | 0.76 mm | - | 336 W/m² | - |
| 1777898721 | 12.78° C | 63% | 1007.5 hPa | 0.76 mm | - | 323 W/m² | - |
| 1777898421 | 12.78° C | 63% | 1007.5 hPa | 0.76 mm | - | 304 W/m² | - |
| 1777898121 | 12.78° C | 63% | 1007.6 hPa | 0 mm | - | 288 W/m² | - |
| 1777897816 | 12.78° C | 63% | 1007.6 hPa | 0 mm | - | 272 W/m² | - |
| 1777897516 | 12.22° C | 64% | 1007.6 hPa | 0 mm | - | 257 W/m² | - |
| 1777897222 | 12.22° C | 64% | 1007.6 hPa | 0 mm | - | 242 W/m² | - |
| 1777896922 | 12.22° C | 64% | 1007.6 hPa | 0 mm | - | 228 W/m² | - |
| 1777896622 | 12.22° C | 64% | 1007.5 hPa | 0 mm | - | 213 W/m² | - |
| 1777896322 | 11.67° C | 64% | 1007.6 hPa | 0 mm | - | 197 W/m² | - |
| 1777896022 | 11.67° C | 65% | 1007.6 hPa | 0 mm | - | 181 W/m² | - |
| 1777895724 | 11.67° C | 65% | 1007.6 hPa | 0 mm | - | 167 W/m² | - |
| 1777895422 | 11.67° C | 65% | 1007.6 hPa | 0 mm | - | 153 W/m² | - |
| 1777895122 | 11.11° C | 66% | 1007.5 hPa | 0 mm | - | 140 W/m² | - |
| 1777894825 | 11.11° C | 66% | 1007.4 hPa | 0 mm | - | 125 W/m² | - |
| 1777894517 | 11.11° C | 67% | 1007.5 hPa | 0 mm | - | 112 W/m² | - |
| 1777894217 | 10.56° C | 67% | 1007.5 hPa | 0 mm | - | 100 W/m² | - |
| 1777893925 | 10.56° C | 68% | 1007.4 hPa | 0 mm | - | 88 W/m² | - |
| 1777893626 | 10.56° C | 68% | 1007.3 hPa | 0 mm | - | 67 W/m² | - |
| 1777893326 | 10° C | 68% | 1007.3 hPa | 0 mm | - | 47 W/m² | - |
| 1777893026 | 10.56° C | 68% | 1007.2 hPa | 0 mm | - | 40 W/m² | - |
| 1777892726 | 10.56° C | 68% | 1007.2 hPa | 0 mm | - | 36 W/m² | - |
| 1777892417 | 10° C | 68% | 1007.2 hPa | 0 mm | - | 34 W/m² | - |
| 1777892126 | 10° C | 68% | 1007.2 hPa | 0 mm | - | 32 W/m² | - |
* Rain latest hour (hover to see other rain measurements)
** Current wind speed in m/s (hover to see current wind gust speed)